Weather History for LEPA - January, 2013

Change the Weather History Date:

Saturday, January 12, 2013

  Actual Average (WUND) Record (WUND)
Temperature  
Mean Temperature 46 °F -  
Max Temperature 60 °F 57 °F - (-1)
Min Temperature 32 °F 39 °F - (-1)
Degree Days  
Heating Degree Days 19    
Moisture  
Dew Point 44 °F    
Average Humidity 85    
Maximum Humidity 100    
Minimum Humidity 52    
Precipitation  
Precipitation 0.00 in 0.05 in - ()
Sea Level Pressure  
Sea Level Pressure 30.06 in    
Wind  
Wind Speed 4 mph ()    
Max Wind Speed 15 mph    
Max Gust Speed -    
Visibility 6.8 miles    
Events      
Averages and records for this station are not official NWS values.
T = Trace of Precipitation, MM = Missing Value Source: Averaged Metar Reports

Daily Weather History Graph

Daily Weather History Graph

Search for Another Location

Airport or City:

Trip Planner

Search our weather history database for the weather conditions in past years. The results will help you decide how hot, cold, wet, or windy it might be!

Date:

Astronomy

Jan. 12, 2013 Rise Set
Actual Time 8:08 AM CET 5:46 PM CET
Civil Twilight 7:39 AM CET 6:16 PM CET
Nautical Twilight 7:05 AM CET 6:49 PM CET
Astronomical Twilight 6:33 AM CET 7:21 PM CET
Moon 8:16 AM CET (1/12) 6:56 PM CET (1/12)
Length of Visible Light 10h 36m
Length of Day
9h 37m
New Moon, 1% of the Moon is Illuminated
Jan 12
New Moon
Jan 19
First Quarter
Jan 27
Full
Feb 3
Last Quarter
Feb 10
New

Hourly Weather History & Observations

Time (CET) Temp. Dew Point Humidity Pressure Visibility Wind Dir Wind Speed Gust Speed Precip Events Conditions
2:00 AM 35.6 °F 35.6 °F 100% 30.15 in 6.2 mi NE 2.3 mph - N/A   Partly Cloudy
2:30 AM 35.6 °F 35.6 °F 100% 30.15 in 6.2 mi ENE 2.3 mph - N/A   Partly Cloudy
3:00 AM 35.6 °F 33.8 °F 93% 30.12 in 6.2 mi NE 2.3 mph - N/A   Partly Cloudy
3:30 AM 35.6 °F 35.6 °F 100% 30.12 in 6.2 mi Calm Calm - N/A   Partly Cloudy
4:00 AM 35.6 °F 35.6 °F 100% 30.12 in 6.2 mi Calm Calm - N/A   Partly Cloudy
4:30 AM 35.6 °F 33.8 °F 93% 30.12 in 6.2 mi NE 2.3 mph - N/A   Partly Cloudy
5:00 AM 35.6 °F 33.8 °F 93% 30.09 in 6.2 mi Calm Calm - N/A   Partly Cloudy
5:30 AM 33.8 °F 33.8 °F 100% 30.09 in 6.2 mi Calm Calm - N/A   Partly Cloudy
6:00 AM 35.6 °F 33.8 °F 93% 30.09 in 6.2 mi NNE 1.2 mph - N/A   Partly Cloudy
6:30 AM 35.6 °F 33.8 °F 93% 30.09 in 6.2 mi Calm Calm - N/A   Partly Cloudy
7:00 AM 33 °F 31 °F 91% 30.10 in 9 mi Calm Calm - -   Scattered Clouds
7:00 AM 33.8 °F 33.8 °F 100% 30.09 in 6.2 mi Calm Calm - N/A   Partly Cloudy
8:00 AM 35.6 °F 33.8 °F 93% 30.09 in 6.2 mi North 1.2 mph - N/A   Partly Cloudy
8:30 AM 35.6 °F 35.6 °F 100% 30.09 in 6.2 mi Calm Calm - N/A   Partly Cloudy
9:00 AM 35.6 °F 35.6 °F 100% 30.09 in 6.2 mi Calm Calm - N/A   Partly Cloudy
9:30 AM 41.0 °F 39.2 °F 93% 30.09 in 6.2 mi Calm Calm - N/A   Partly Cloudy
10:00 AM 44.6 °F 44.6 °F 100% 30.09 in 6.2 mi Calm Calm - N/A   Partly Cloudy
10:30 AM 48.2 °F 46.4 °F 93% 30.09 in 6.2 mi Calm Calm - N/A   Partly Cloudy
11:00 AM 55.4 °F 51.8 °F 88% 30.09 in 6.2 mi Variable 1.2 mph - N/A   Partly Cloudy
11:30 AM 57.2 °F 50.0 °F 77% 30.09 in 6.2 mi WSW 5.8 mph - N/A   Partly Cloudy
12:00 PM 59.0 °F 51.8 °F 77% 30.09 in 6.2 mi West 3.5 mph - N/A   Partly Cloudy
12:30 PM 59.0 °F 51.8 °F 77% 30.06 in 6.2 mi WSW 10.4 mph - N/A   Partly Cloudy
1:00 PM 60 °F 48 °F 55% 30.06 in 19 mi SW 15.0 mph - -   Scattered Clouds
1:00 PM 59.0 °F 51.8 °F 77% 30.06 in 6.2 mi WSW 11.5 mph - N/A   Partly Cloudy
1:30 PM 59.0 °F 51.8 °F 77% 30.04 in 6.2 mi SW 12.7 mph - N/A   Partly Cloudy
2:00 PM 60.8 °F 51.8 °F 72% 30.04 in 6.2 mi SW 12.7 mph - N/A   Partly Cloudy
2:30 PM 60.8 °F 50.0 °F 68% 30.04 in 6.2 mi SW 12.7 mph - N/A   Partly Cloudy
3:00 PM 60.8 °F 50.0 °F 68% 30.04 in 6.2 mi WSW 13.8 mph - N/A   Partly Cloudy
3:30 PM 60.8 °F 42.8 °F 52% 30.04 in 6.2 mi West 12.7 mph - N/A   Partly Cloudy
4:30 PM 59.0 °F 48.2 °F 67% 30.04 in 6.2 mi WSW 12.7 mph - N/A   Partly Cloudy
5:00 PM 57.2 °F 48.2 °F 72% 30.04 in 6.2 mi SW 8.1 mph - N/A   Partly Cloudy
5:30 PM 57.2 °F 48.2 °F 72% 30.04 in 6.2 mi SW 4.6 mph - N/A   Partly Cloudy
6:00 PM 55.4 °F 48.2 °F 77% 30.04 in 6.2 mi WSW 8.1 mph - N/A   Partly Cloudy
6:30 PM 51.8 °F 48.2 °F 88% 30.04 in 6.2 mi SW 6.9 mph - N/A   Partly Cloudy
7:00 PM 50 °F 44 °F 72% 30.04 in 16 mi Calm Calm - -   Scattered Clouds
7:00 PM 53.6 °F 48.2 °F 82% 30.04 in 6.2 mi SSW 2.3 mph - N/A   Partly Cloudy
7:30 PM 48.2 °F 44.6 °F 87% 30.04 in 6.2 mi Calm Calm - N/A   Partly Cloudy
8:00 PM 48.2 °F 44.6 °F 87% 30.04 in 6.2 mi ESE 2.3 mph - N/A   Scattered Clouds
8:30 PM 48.2 °F 46.4 °F 93% 30.01 in 6.2 mi Calm Calm - N/A   Scattered Clouds
9:00 PM 48.2 °F 46.4 °F 93% 30.01 in 6.2 mi Calm Calm - N/A   Scattered Clouds
9:30 PM 51.8 °F 50.0 °F 94% 30.01 in 6.2 mi WSW 8.1 mph - N/A   Partly Cloudy
10:00 PM 57.2 °F 51.8 °F 82% 30.01 in 6.2 mi WSW 12.7 mph - N/A   Mostly Cloudy
10:30 PM 57.2 °F 51.8 °F 82% 29.98 in 6.2 mi WSW 13.8 mph - N/A   Mostly Cloudy
11:00 PM 57.2 °F 53.6 °F 88% 29.98 in 6.2 mi WSW 12.7 mph - N/A   Scattered Clouds
11:30 PM 57.2 °F 53.6 °F 88% 29.98 in 6.2 mi WSW 15.0 mph - N/A   Scattered Clouds